ARCTURUS

Last updated on Sun Jun 21 2026 00:03:09 GMT+0000 (Coordinated Universal Time)

1 56371U 23060B 26171.40632536 -.00000068 00000+0 00000+0 0 9992 2 56371 2.7832 79.9141 0002642 53.4469 354.0398 1.00272479 11491
UTC large
Height (km)
Speed (km/s)
/
Latitude / Longitude
Inclination (degrees)
Orbital Period (minutes)
Azimuth
Elevation
Range (km)
Doppler Factor

Next 0 passes for location: London (51.5072 / 0.1276)

No passes found over London.
ARCTURUS